Location: West Cummington
(42.4920°N, 72.9680°W)
Time: 04:54:14
(UTC-04:00)

Daily predictions for brighter satellites

Satellite Brightness Start Highest point End
(mag) Time Altitude Azimuth Time Altitude Azimuth Time Altitude Azimuth
SeaSat 1 4.0 00:09:02 31° N 00:09:02 31° N 00:11:56 10° NNW
Lacrosse 5 3.9 00:07:48 10° NW 00:09:43 23° NW 00:09:43 23° NW
Cosmos 1943 Rocket 4.0 00:33:49 10° NW 00:36:08 22° WNW 00:36:08 22° WNW
COSMOS 2406 4.5 01:08:40 36° NE 01:08:40 36° NE 01:11:59 10° NNE
ADEOS Rocket 3.6 01:16:05 10° N 01:21:58 55° NW 01:21:58 55° NW
Cosmos 2082 Rocket 4.3 01:24:50 17° ENE 01:24:50 17° ENE 01:26:59 10° ENE
Mayak 1.7 01:32:59 10° NNW 01:33:35 12° NNW 01:33:35 12° NNW
Resurs 1-4 Rocket 4.3 01:39:49 10° NE 01:42:28 16° E 01:42:28 16° E
Cosmos 1833 Rocket 3.9 01:59:55 36° ENE 01:59:55 36° ENE 02:03:52 10° NE
Cosmos 2369 4.4 01:54:52 10° NNW 01:59:23 50° NNE 01:59:23 50° NNE
Lacrosse 4 Rocket 3.5 02:02:32 10° NNW 02:05:06 27° NNE 02:05:06 27° NNE
Gbstr 26 Del rocket 4.5 02:16:39 63° WNW 02:17:40 71° NNW 02:24:51 10° NE
Cosmos 1607 4.1 02:20:37 72° ENE 02:20:37 72° ENE 02:26:35 10° NE
Cosmos 2034 Rocket 4.1 02:25:57 71° NNW 02:25:57 71° NNW 02:31:38 10° N
ARIANE 5 R/B 4.0 02:28:28 10° NE 02:32:56 28° E 02:33:21 28° ESE
Lacrosse 5 rocket 3.2 02:35:45 30° NE 02:35:45 30° NE 02:37:53 10° NE
Cosmos 1867 4.1 02:28:57 10° NNW 02:33:14 54° NNW 02:33:14 54° NNW
Cosmos 1092 Rocket 4.0 02:30:50 10° N 02:37:04 72° E 02:37:32 69° ESE
Cosmos 371 Rocket 4.1 02:38:31 49° NNE 02:38:31 49° NNE 02:42:05 10° NNE
Meteor 1-23 Rocket 4.3 02:38:30 75° NNE 02:38:30 75° NNE 02:43:44 10° N
Meteor 2-4 Rocket 4.3 02:39:37 45° NW 02:39:37 45° NW 02:43:44 10° N
Exosat Rocket 4.2 02:35:14 10° NNW 02:41:15 90° ENE 02:42:45 61° SSE
CZ-2D R/B 2.4 02:42:03 10° NNE 02:47:19 59° E 02:47:19 59° E
SL-16 R/B 2.5 02:51:48 70° SSE 02:52:37 87° ENE 02:58:55 10° NNW
Cosmos 1980 Rocket 2.5 02:50:37 10° NNW 02:56:11 61° ENE 02:58:11 38° SE
Cosmos 1697 Rocket 2.8 02:52:57 10° NNW 02:57:46 63° NW 02:57:46 63° NW
IRS-1D 3.7 02:54:12 10° NNE 02:59:20 64° E 02:59:31 63° ESE
IRS-1C 4.0 02:58:14 10° NNE 03:03:37 83° ESE 03:03:43 83° SE
Cosmos 1627 Rocket 4.5 02:58:39 10° N 03:05:04 82° E 03:06:36 55° SSE
Cosmos 2082 Rocket 2.3 03:06:40 62° WNW 03:06:41 62° WNW 03:12:19 10° NNE
ADEOS II 4.2 03:04:10 10° NE 03:08:04 21° E 03:11:24 12° SE
Okean 1-7 Rocket 4.0 03:09:03 59° E 03:09:03 59° E 03:13:17 10° NNE
SL-16 R/B 4.1 03:03:57 10° N 03:08:52 29° NE 03:13:43 10° ESE
Cosmos 304 Rocket 3.8 03:11:51 75° E 03:11:51 75° E 03:16:31 10° NNE
H-2A R/B 3.4 03:07:49 10° N 03:10:57 43° NNW 03:10:57 43° NNW
UNKNOWN OBJECT B 4.1 03:14:45 10° NNE 03:18:14 32° E 03:18:22 32° E
ATLAS 3B R/B 3.8 03:16:15 25° SSE 03:19:24 36° ESE 03:25:38 10° NE
MOZ.5/SAFIR/RUBIN 5/SL-8 3.7 03:21:27 84° WNW 03:21:27 84° WNW 03:26:08 10° NNW
Cosmos 1544 4.2 03:19:09 10° N 03:21:44 42° N 03:21:44 42° N
Cosmos 2228 4.1 03:19:00 10° N 03:23:04 40° ENE 03:24:39 29° SE
Resurs 1-4 Rocket 2.0 03:18:02 10° N 03:23:16 66° WNW 03:23:32 64° W
Cosmos 2322 Rocket 3.7 03:19:23 10° N 03:24:33 35° ENE 03:29:39 10° ESE
Cosmos 1606 Rocket 3.6 03:21:25 10° N 03:25:45 73° E 03:25:51 73° E
Cosmos 1634 Rocket 4.0 03:24:53 56° WSW 03:25:52 64° W 03:32:06 10° N
ERS-1 4.3 03:27:19 10° N 03:32:17 74° WNW 03:32:47 67° WSW
NPP 4.3 03:29:18 10° N 03:34:14 37° WNW 03:34:34 37° WNW
Cosmos 1763 Rocket 3.9 03:34:40 39° SSE 03:36:21 58° ESE 03:41:35 10° NNE
SJ 16-02 4.2 03:34:20 10° NNE 03:37:21 18° ENE 03:40:22 10° ESE
Cosmos 1892 Rocket 3.6 03:38:18 60° SSE 03:39:00 74° E 03:43:24 10° NNE
Cosmos 2279 Rocket 3.9 03:36:56 43° SSW 03:39:10 84° W 03:45:29 10° N
Cosmos 1025 Rocket 4.1 03:42:56 31° NW 03:42:56 31° NW 03:46:05 10° N
Cosmos 1842 4.0 03:41:25 41° SE 03:42:18 50° E 03:46:09 10° NNE
USA 215 4.2 03:36:23 10° ENE 03:42:22 37° SE 03:45:35 24° S
Cosmos 1833 Rocket 3.7 03:41:36 29° WNW 03:42:37 31° NW 03:47:37 10° N
COSMOS 2487 3.7 03:45:12 31° NNW 03:45:12 31° NNW 03:47:35 10° N
Cosmos 2208 Rocket 4.2 03:46:29 48° WSW 03:47:25 54° WNW 03:52:35 10° NNE
Cosmos 2026 Rocket 4.2 03:41:37 10° NNW 03:47:46 52° W 03:49:30 41° SW
Cosmos 1898 Rocket 3.4 03:45:23 10° NNW 03:50:33 65° WSW 03:52:29 38° S
BREEZE-M DEB (TANK) 4.5 03:53:18 12° ESE 03:53:18 12° ESE 03:53:39 10° ESE
Cosmos 44 3.6 03:51:34 10° NNW 03:56:49 75° NE 04:02:12 10° SE
Cosmos 1805 3.3 03:53:48 10° N 03:57:43 79° E 03:59:11 37° SSE
Cosmos 1953 4.2 03:54:29 10° NNE 03:58:09 31° ENE 04:01:46 10° SE
Cosmos 1937 Rocket 3.3 03:55:42 10° NNW 04:00:54 74° WSW 04:05:30 13° S
BREEZE-M R/B 2.5 04:00:43 65° SSW 04:01:07 76° SE 04:06:27 10° ENE
Cosmos 1766 3.3 04:01:03 10° NNW 04:04:50 54° W 04:04:57 54° WSW
Cosmos 858 Rocket 4.5 04:00:25 10° NNW 04:05:31 58° WSW 04:08:43 22° S
Cosmos 724 4.3 04:05:14 36° SW 04:07:40 70° NW 04:13:29 10° NNE
Timation 2 Rocket 3.8 04:07:41 30° SSW 04:10:53 87° WNW 04:16:53 10° NNE
Cosmos 1356 Rocket 4.4 04:10:57 29° WNW 04:10:57 29° WNW 04:14:29 10° NNW
ARIANE 5 R/B 3.2 04:07:17 10° N 04:12:06 38° WNW 04:13:42 30° WSW
Lacrosse 5 rocket 3.3 04:11:25 16° WNW 04:13:19 21° NNW 04:16:27 10° NNE
Cosmos 990 Rocket 4.0 04:11:03 10° NNW 04:16:04 54° WSW 04:20:38 12° S
Okean O Rocket 4.3 04:16:01 10° NE 04:18:54 17° E 04:21:46 10° SE
USA 238 DEB 3.7 04:17:41 25° SW 04:21:56 85° NW 04:28:57 10° NE
USA 238 3.7 04:17:46 25° SW 04:22:02 86° NW 04:29:03 10° NE
Cosmos 2266 Rocket 3.9 04:17:03 10° N 04:23:08 80° W 04:29:17 10° S
Cosmos 1814 Rocket 4.1 04:20:49 30° SW 04:23:13 57° WNW 04:28:21 10° NNE
Cosmos 1655 Rocket 4.5 04:18:18 10° NNW 04:24:11 41° W 04:27:55 21° SW
Cosmos 1758 3.2 04:20:24 10° N 04:24:23 86° ENE 04:28:22 10° S
Cosmos 44 Rocket 3.4 04:20:26 10° NNW 04:25:37 89° ENE 04:30:48 10° SSE
Helios 1A Rocket 4.0 04:22:43 10° N 04:26:22 30° WNW 04:27:23 27° W
CZ-2D R/B 3.7 04:23:10 10° NNW 04:26:58 20° WNW 04:28:40 17° W
CZ-2D R/B 4.1 04:23:50 10° N 04:27:37 37° WNW 04:28:56 29° WSW
DNEPR-1 R/B 3.8 04:26:52 22° SSW 04:29:24 63° ESE 04:33:55 10° NE
Cosmos 2150 Rocket 4.1 04:24:15 10° NNW 04:29:36 57° WSW 04:34:55 10° S
Cosmos 1733 3.1 04:30:28 10° N 04:34:21 88° W 04:38:13 10° S
Cosmos 2298 Rocket 4.3 04:31:43 10° NNW 04:36:45 43° WSW 04:41:43 10° S
SL-16 R/B 4.1 04:36:53 15° W 04:36:59 15° W 04:40:18 10° NW
Cosmos 2360 Rocket 2.9 04:32:09 10° NNW 04:37:41 57° ENE 04:43:12 10° SE
Cosmos 1980 Rocket 3.5 04:35:48 10° WNW 04:39:38 19° W 04:39:51 19° WSW
PSLV R/B 3.7 04:38:10 10° NNE 04:42:23 73° E 04:46:34 10° S
ADEOS II 2.4 04:42:58 10° N 04:48:04 51° WNW 04:52:21 14° SW
Cosmos 841 Rocket 4.0 04:48:23 18° SW 04:51:53 43° WNW 04:56:52 10° N
Cosmos 2082 Rocket 4.3 04:50:01 10° WNW 04:52:00 12° NW 04:54:00 10° NNW
Cosmos 1812 Rocket 3.5 04:47:50 10° N 04:52:19 77° W 04:56:45 10° S
UNKNOWN OBJECT B 4.4 04:49:46 10° NNW 04:52:28 19° WNW 04:53:49 16° W
SL-16 R/B 2.5 04:47:45 10° NW 04:53:09 45° WSW 04:58:29 10° S
CZ-4B R/B 3.2 04:50:14 10° NNE 04:54:28 72° E 04:58:28 10° S
Cosmos 2058 Rocket 4.4 04:53:06 10° NW 04:56:22 20° W 04:58:12 16° WSW
Cosmos 1602 Rocket 3.8 04:53:48 12° SSW 04:57:34 49° WNW 05:01:46 10° N
NOSS 3-2 (C) 3.6 04:53:13 10° SSW 04:59:04 77° ESE 05:05:37 10° NE
Cosmos 1470 2.8 04:56:08 10° NNW 05:00:03 57° W 05:03:56 10° S
Cosmos 1238 Rocket 4.3 04:57:21 10° S 05:03:51 82° E 05:10:35 10° N
Cosmos 1758 Rocket 4.4 04:59:40 10° S 05:03:52 53° E 05:08:07 10° NNE
Cosmos 2219 Rocket 4.4 04:59:48 10° N 05:04:39 29° NE 05:09:28 10° ESE
Cosmos 540 Rocket 3.7 05:02:53 11° SW 05:07:47 54° WNW 05:12:51 10° NNE
Cosmos 2322 Rocket 2.7 05:03:28 10° NW 05:08:33 35° WSW 05:13:35 10° S
ATLAS 3B R/B 3.1 05:03:31 13° WSW 05:09:55 53° NW 05:16:39 10° NNE
Cosmos 1626 Rocket 4.4 05:06:34 12° SW 05:10:07 32° WNW 05:14:01 10° NNW
Meteor 1-16 Rocket 4.4 05:04:45 10° N 05:10:27 80° E 05:15:56 10° SSE
USA 161 2.1 05:09:16 10° SSE 05:12:16 62° ENE 05:15:11 10° N
NOSS 3-2 (A) 3.6 05:10:13 10° SW 05:16:00 63° NW 05:22:35 10° NNE
SJ 16-02 1.6 05:11:58 10° NNW 05:16:13 46° WSW 05:20:26 10° S
Cosmos 1833 4.3 05:11:36 10° SSW 05:17:24 72° WNW 05:23:12 10° NNE
Cosmos 1707 3.0 05:14:12 10° SSW 05:17:56 47° W 05:21:43 10° N
Cosmos 1378 3.9 05:14:57 10° SW 05:18:22 33° WNW 05:21:47 10° N
MOS 1-B 4.4 05:13:57 10° N 05:19:43 66° WNW 05:25:28 10° SSW
ATLAS CENTAUR R/B 1.6 05:18:08 10° NW 05:22:35 88° WSW 05:27:17 10° SSE
BREEZE-M DEB (TANK) 4.4 05:20:32 10° SSW 05:23:56 31° SE 05:27:31 10° ENE
PAYLOAD B 4.4 05:19:27 10° NNE 05:25:07 86° ESE 05:30:43 10° SSW
USA 215 3.4 05:19:07 10° NE 05:25:36 67° NW 05:32:03 10° WSW
CENTAUR R/B 3.1 05:24:33 10° SSW 05:30:18 58° ESE 05:36:55 10° NE
